Miscellaneous Local Product
Issued by NWS North Platte, NE

Home | Current Version | Previous Version | Graphics & Text | Print | Product List | Glossary On
Versions: 1 2 3 4 5 6 7 8 9 10 11 12 13 14 15 16 17 18 19 20 21 22 23 24 25 26 27 28 29 30 31 32 33 34 35 36 37 38 39 40 41 42 43 44 45 46 47 48 49 50
000
AXUS43 KLBF 230110
MISLBF


WESTERN AND NORTH CENTRAL NEBRASKA HOURLY WEATHER ROUNDUP
NATIONAL WEATHER SERVICE NORTH PLATTE NE
800 PM CDT FRI MAY 22 2015

***STATIONS NOT REPORTING VARIABLES SUCH AS SKY/WEATHER OR
PRESSURE ARE PROVIDED BY THE NEBRASKA DEPARTMENT OF
ROADS...RAWS...AND APRS NETWORKS...AND ARE NOT UNDER
NATIONAL WEATHER SERVICE QUALITY CONTROL***

...OBSERVATIONS IN AND NEAR THE EASTERN PANHANDLE OF NEBRASKA...

CITY           SKY/WX    TMP DP  RH WIND       PRES   REMARKS
PINE RIDGE     CLOUDY    49  42  77 SE13      30.09R
CHADRON        CLOUDY    50  44  80 SE13      30.07S
ALLIANCE       CLOUDY    47  44  90 SE15      30.06S
SIDNEY         CLOUDY    46  44  93 SE16G23   30.05S FOG
WHITECLAY        N/A     45  41  86 SE12        N/A
BIG SPRINGS      N/A     47  46  95 E14         N/A
$$

...OBSERVATIONS IN NORTH CENTRAL NEBRASKA...

CITY           SKY/WX    TMP DP  RH WIND       PRES   REMARKS
VALENTINE      CLOUDY    51  44  77 SE15      30.13F
THEDFORD       CLOUDY    48  46  90 SE12G17   30.13S
AINSWORTH      CLOUDY    50  45  81 SE12      30.15S
O`NEILL        DRIZZLE   52  48  87 SE6       30.17S
ORD            LGT RAIN  50  47  89 SE6       30.16R FOG
BROKEN BOW     LGT RAIN  49  47  93 E12       30.13F FOG
BROWNLEE         N/A     50  46  87 SE13        N/A
VALENTINE NWR    N/A     49  41  73 SE15G23     N/A
SPRINGVIEW       N/A     51  46  82 E3G12       N/A
HALSEY           N/A     47  44  91 SE10G17     N/A
BREWSTER         N/A     49  47  93 SE12        N/A
ROSE             N/A     48  48 100 E8          N/A
NEWPORT          N/A     49  46  88 SE6         N/A
SARGENT          N/A     48  46  93 E3          N/A
COMSTOCK         N/A     51  51  99 E7          N/A
EWING            N/A     52  49  90 CALM        N/A
$$

...OBSERVATIONS IN SOUTHWEST NEBRASKA AND FAR NORTHEAST COLORADO...

CITY           SKY/WX    TMP DP  RH WIND       PRES   REMARKS
WRAY           CLOUDY   N/A N/A N/A E13       30.01S
IMPERIAL       LGT RAIN  49  47  93 E16       30.03F
OGALLALA       LGT RAIN  47  46  97 E13G18    30.07S
NORTH PLATTE   LGT RAIN  48  46  93 E16       30.09F
MCCOOK         CLOUDY    51  50  96 E13       30.07S FOG
LEXINGTON      DRIZZLE   51  50  96 E10G18    30.11F
GOTHENBURG       N/A     49  47  93 E10         N/A
CALLAWAY         N/A     48  47  97 E12         N/A
$$

...NORTH PLATTE AREA...

CITY           SKY/WX    TMP DP  RH WIND       PRES   REMARKS
AIRPORT        LGT RAIN  48  46  93 E16       30.09F
DOWNTOWN         N/A     47  45  94 E5G12       N/A
$$

...SOME WEATHER OBSERVATIONS FROM AROUND THE REGION...

CITY           SKY/WX    TMP DP  RH WIND       PRES   REMARKS
DENVER         PTSUNNY   54  45  71 NE10      29.99S
LARAMIE        LGT RAIN  45  40  82 SE20      29.99S
CHEYENNE       CLOUDY    47  42  83 SE9       30.02R
SCOTTSBLUFF    CLOUDY    48  46  93 SE20      30.04S
RAPID CITY     CLOUDY    54  39  57 S14       30.07S
PIERRE         CLOUDY    61  43  51 S20       30.11R
WINNER         CLOUDY    56  40  55 S14       30.15S
SIOUX FALLS    CLOUDY    61  42  49 SW16G26   30.18R
OMAHA          CLOUDY    65  43  44 SE8       30.17F
GRAND ISLAND   LGT RAIN  54  48  80 SE8       30.16S
KANSAS CITY    CLOUDY    62  49  62 SE8       30.20F
WICHITA        CLOUDY    60  52  74 SE14      30.12S
HAYS           CLOUDY    55  48  76 SE15      30.09S
LIBERAL        MOCLDY    63  55  77 S17G23    30.02S
GOODLAND       CLOUDY    54  52  93 SE15G24   30.00S
$$



USA.gov is the U.S. government's official web portal to all federal, state and local government web resources and services.